TimeEDT,TemperatureF,Dew PointF,Humidity,Sea Level PressureIn,VisibilityMPH,Wind Direction,Wind SpeedMPH,Gust SpeedMPH,PrecipitationIn,Events,Conditions,WindDirDegrees,DateUTC
12:24 AM,80.6,73.4,79,29.98,10.0,ESE,11.5,-,N/A,,Mostly Cloudy,120,2013-05-01 04:24:00
12:31 AM,80.6,71.6,74,29.97,10.0,ESE,12.7,-,N/A,,Scattered Clouds,120,2013-05-01 04:31:00
12:53 AM,79.0,73.0,82,29.95,10.0,ESE,12.7,-,N/A,,Partly Cloudy,120,2013-05-01 04:53:00
1:53 AM,79.0,73.0,82,29.93,10.0,SE,11.5,-,N/A,,Clear,130,2013-05-01 05:53:00
2:53 AM,79.0,73.0,82,29.91,10.0,SE,9.2,-,N/A,,Partly Cloudy,130,2013-05-01 06:53:00
3:53 AM,79.0,72.0,79,29.89,10.0,SE,12.7,-,N/A,,Partly Cloudy,140,2013-05-01 07:53:00
4:53 AM,79.0,72.0,79,29.90,10.0,SE,12.7,-,N/A,,Partly Cloudy,140,2013-05-01 08:53:00
5:53 AM,79.0,72.0,79,29.91,10.0,SE,8.1,-,N/A,,Clear,140,2013-05-01 09:53:00
6:53 AM,79.0,72.0,79,29.91,10.0,SE,9.2,-,N/A,,Mostly Cloudy,130,2013-05-01 10:53:00
7:53 AM,81.0,72.0,74,29.93,10.0,SE,10.4,-,N/A,,Mostly Cloudy,140,2013-05-01 11:53:00
8:53 AM,81.0,73.0,77,29.95,10.0,SSE,9.2,-,N/A,,Mostly Cloudy,150,2013-05-01 12:53:00
9:53 AM,82.0,73.0,74,29.97,10.0,SE,11.5,-,N/A,,Mostly Cloudy,140,2013-05-01 13:53:00
10:53 AM,81.0,73.0,77,29.98,10.0,SE,6.9,-,N/A,,Overcast,140,2013-05-01 14:53:00
11:53 AM,81.0,72.0,74,29.98,10.0,SSE,9.2,-,N/A,,Overcast,150,2013-05-01 15:53:00
12:29 PM,80.6,71.6,74,29.97,10.0,SSE,8.1,-,0.00,Rain-Thunderstorm,Light Thunderstorms and Rain,150,2013-05-01 16:29:00
12:53 PM,79.0,73.0,82,29.98,6.0,South,3.5,-,0.01,Rain-Thunderstorm,Light Thunderstorms and Rain,190,2013-05-01 16:53:00
1:21 PM,78.8,73.4,83,29.99,2.5,West,3.5,-,0.07,Rain-Thunderstorm,Light Thunderstorms and Rain,280,2013-05-01 17:21:00
1:29 PM,75.2,71.6,89,30.00,3.0,WNW,12.7,17.3,0.10,Rain-Thunderstorm,Light Thunderstorms and Rain,300,2013-05-01 17:29:00
1:53 PM,73.9,71.1,91,29.97,3.0,Calm,Calm,-,0.18,Rain,Light Rain,0,2013-05-01 17:53:00
1:58 PM,73.4,71.6,94,29.96,3.0,SSE,4.6,-,0.01,Rain-Thunderstorm,Light Thunderstorms and Rain,150,2013-05-01 17:58:00
2:28 PM,75.2,73.4,94,29.94,7.0,SE,4.6,-,0.04,Rain,Light Rain,130,2013-05-01 18:28:00
2:31 PM,75.2,73.4,94,29.94,10.0,ESE,4.6,-,0.04,,Overcast,120,2013-05-01 18:31:00
2:53 PM,77.0,73.9,90,29.94,10.0,North,5.8,-,0.04,,Overcast,350,2013-05-01 18:53:00
3:21 PM,78.8,75.2,89,29.94,9.0,NNW,9.2,-,N/A,,Mostly Cloudy,340,2013-05-01 19:21:00
3:53 PM,77.0,73.0,88,29.93,9.0,NNW,9.2,-,N/A,,Overcast,340,2013-05-01 19:53:00
4:53 PM,79.0,72.0,79,29.91,10.0,North,9.2,-,N/A,,Scattered Clouds,10,2013-05-01 20:53:00
5:53 PM,79.0,71.1,77,29.92,10.0,NNE,5.8,-,N/A,,Scattered Clouds,30,2013-05-01 21:53:00
6:53 PM,78.1,72.0,81,29.92,10.0,NNE,6.9,-,N/A,,Mostly Cloudy,20,2013-05-01 22:53:00
7:53 PM,78.1,71.1,79,29.94,10.0,NNE,6.9,-,N/A,,Mostly Cloudy,30,2013-05-01 23:53:00
8:53 PM,77.0,71.1,82,29.94,10.0,ENE,3.5,-,N/A,,Overcast,60,2013-05-02 00:53:00
9:53 PM,77.0,72.0,84,29.93,10.0,NE,4.6,-,N/A,,Scattered Clouds,40,2013-05-02 01:53:00
10:53 PM,77.0,73.0,88,29.95,10.0,NE,5.8,-,N/A,,Mostly Cloudy,50,2013-05-02 02:53:00
11:49 PM,77.0,73.4,89,29.93,10.0,NE,5.8,-,N/A,Thunderstorm,Thunderstorm,50,2013-05-02 03:49:00
11:53 PM,77.0,73.0,88,29.93,10.0,NNE,4.6,-,N/A,Thunderstorm,Thunderstorm,30,2013-05-02 03:53:00